Regional Weather Roundup
Issued by NWS

Home | Current Version | Previous Version | Graphics & Text | Print | Product List | Glossary Off
Versions: 1 2 3 4 5 6 7 8 9 10 11 12 13 14 15 16 17 18 19 20 21 22 23 24 25 26 27 28 29 30 31 32 33 34 35 36 37 38 39 40 41 42 43 44 45 46 47 48 49 50

000
ASUS43 KTOP 281108
RWRKS

WEATHER ROUNDUP FOR KANSAS
NATIONAL WEATHER SERVICE GOODLAND KS
600 AM CDT FRI AUG 28 2015

NOTE:  "FAIR" INDICATES FEW OR NO CLOUDS BELOW 12,000 FEET WITH NO
SIGNIFICANT WEATHER AND/OR OBSTRUCTIONS TO VISIBILITY.

KSZ001>006-013>018-027>032-041>047-281200-
NORTHWEST KANSAS

CITY           SKY/WX    TMP DP  RH WIND       PRES   REMARKS
GOODLAND       CLEAR     60  56  86 W8        30.04R
HAYS           PTCLDY    72  57  60 SW10      29.89S
HILL CITY      CLEAR     69  64  84 NW10      29.90S
RUSSELL        PTCLDY    72  67  84 SW10      29.87S
$$

KSZ061>065-074>080-084>089-281200-
SOUTHWEST KANSAS

CITY           SKY/WX    TMP DP  RH WIND       PRES   REMARKS
DODGE CITY     CLOUDY    68  63  84 SW10      29.95S
ELKHART          N/A     68  57  68 NW9         N/A
GARDEN CITY    MOCLDY    69  63  81 NW10      29.97R
GREAT BEND     PTCLDY    72  64  78 SW13      29.90R
LIBERAL        CLOUDY    72  64  78 SW7       30.00R
PRATT          CLOUDY    70  64  83 S18       29.93R
$$

KSZ066>073-081>083-090>101-281200-
SOUTHEAST KANSAS

CITY           SKY/WX    TMP DP  RH WIND       PRES   REMARKS
CHANUTE        CLOUDY    66  64  93 S9        29.98F
COFFEYVILLE    CLOUDY    66  64  93 SE6       29.99S
HUTCHINSON     CLOUDY    74  65  73 S22G28    29.90R
MEDICINE LODGE   N/A     72  67  84 S14       29.91F
NEWTON         CLOUDY    72  63  73 S17G24    29.93S
WICHITA INTL   CLOUDY    73  67  81 S10       29.92F
WICHITA JABRA  LGT RAIN  72  68  87 S10       29.94R
WICHITA MCCONL LGT RAIN  71  65  81 S8        29.93F
WINFIELD       LGT RAIN  71  67  87 SE9       29.96F
$$

KSZ007>012-019>026-033>040-048>060-102>105-281200-
NORTHEAST KANSAS

CITY           SKY/WX    TMP DP  RH WIND       PRES   REMARKS
CONCORDIA      PTCLDY    71  66  84 S14       29.87R
EMPORIA        CLOUDY    68  65  90 S17       29.92F
LAWRENCE       CLOUDY    69  63  81 SE9       29.94F
MANHATTAN      LGT RAIN  71  68  90 SW10      29.90S
MARYSVILLE     CLOUDY   N/A N/A N/A S15       29.86S
OLATHE IND     CLOUDY    68  64  87 S12       29.97S
OLATHE EXE     CLOUDY    68  64  87 S10       29.96F
SALINA         CLOUDY    74  65  73 S13       29.88F
TOPEKA BILLARD CLOUDY    70  64  81 S5        29.93F
TOPEKA FORBES  CLOUDY    70  63  78 S10       29.93F
$$



USA.gov is the U.S. government's official web portal to all federal, state and local government web resources and services.